Weather History for Silver Bay, MN

Change the Weather History Date:

Monday, January 21, 2013

  Actual Average Record
Temperature  
Mean Temperature -20 °F -  
Max Temperature -11 °F 17 °F 30 °F (1997)
Min Temperature -29 °F 0 °F -31 °F (2011)
Degree Days  
Heating Degree Days 85    
Moisture  
Dew Point -30 °F    
Average Humidity 54    
Maximum Humidity 69    
Minimum Humidity 41    
Precipitation  
Precipitation 0.00 in - - ()
Sea Level Pressure  
Sea Level Pressure 30.10 in    
Wind  
Wind Speed 5 mph (WNW)    
Max Wind Speed 12 mph    
Max Gust Speed 25 mph    
Visibility 9 miles    
Events      
Averages and records for this station are not official NWS values.
T = Trace of Precipitation, MM = Missing Value Source: NWS Daily Summary

Daily Weather History Graph

Daily Weather History Graph

Search for Another Location

Airport:

Trip Planner

Search our weather history database for the weather conditions in past years. The results will help you decide how hot, cold, wet, or windy it might be!

Date:

Astronomy

Jan. 21, 2013 Rise Set
Actual Time 7:43 AM CST 4:51 PM CST
Civil Twilight 7:09 AM CST 5:25 PM CST
Nautical Twilight 6:31 AM CST 6:03 PM CST
Astronomical Twilight 5:55 AM CST 6:39 PM CST
Moon 12:30 PM CST (1/21) 3:12 AM CST (1/21)
Length of Visible Light 10h 16m
Length of Day
9h 08m
Waxing Gibbous, 75% of the Moon is Illuminated
Jan 21
Waxing Gibbous
Jan 26
Full
Feb 3
Last Quarter
Feb 10
New
Feb 17
First Quarter

Hourly Weather History & Observations

Time (CST) Temp. Windchill Dew Point Humidity Pressure Visibility Wind Dir Wind Speed Gust Speed Precip Events Conditions
12:13 AM -11.2 °F -20.6 °F -22.0 °F 59% 30.07 in 10.0 mi West 3.5 mph - N/A   Clear
12:33 AM -11.2 °F -24.8 °F -22.0 °F 59% 30.07 in 10.0 mi WNW 5.8 mph - N/A   Clear
12:53 AM -13.0 °F -27.0 °F -23.8 °F 59% 30.07 in 10.0 mi WNW 5.8 mph - N/A   Clear
1:13 AM -13.0 °F -22.7 °F -23.8 °F 59% 30.07 in 10.0 mi WNW 3.5 mph - N/A   Clear
1:33 AM -14.8 °F -27.2 °F -23.8 °F 64% 30.07 in 10.0 mi WNW 4.6 mph - N/A   Clear
1:54 AM -14.8 °F -24.8 °F -25.6 °F 58% 30.07 in 10.0 mi West 3.5 mph - N/A   Scattered Clouds
1:56 AM -14.8 °F -27.2 °F -25.6 °F 58% 30.07 in 10.0 mi NW 4.6 mph - N/A   Scattered Clouds
2:13 AM -14.8 °F -29.1 °F -25.6 °F 58% 30.07 in 10.0 mi NW 5.8 mph - N/A   Scattered Clouds
2:33 AM -14.8 °F - -25.6 °F 58% 30.08 in 10.0 mi Calm Calm - N/A   Clear
2:53 AM -14.8 °F - -25.6 °F 58% 30.07 in 10.0 mi Calm Calm - N/A   Clear
3:13 AM -14.8 °F -24.8 °F -25.6 °F 58% 30.07 in 10.0 mi NNW 3.5 mph - N/A   Scattered Clouds
3:33 AM -14.8 °F -24.8 °F -27.4 °F 53% 30.07 in 10.0 mi NW 3.5 mph - N/A   Clear
3:53 AM -16.6 °F -26.8 °F -27.4 °F 58% 30.07 in 10.0 mi West 3.5 mph - N/A   Clear
4:13 AM -16.6 °F -31.3 °F -29.2 °F 53% 30.06 in 10.0 mi WNW 5.8 mph - N/A   Clear
4:33 AM -16.6 °F -32.9 °F -29.2 °F 53% 30.06 in 10.0 mi NW 6.9 mph - N/A   Clear
4:53 AM -18.4 °F -36.6 °F -29.2 °F 58% 30.06 in 10.0 mi WNW 8.1 mph - N/A   Clear
5:13 AM -18.4 °F -37.9 °F -29.2 °F 58% 30.06 in 10.0 mi NW 9.2 mph 16.1 mph N/A   Clear
5:53 AM -18.4 °F -33.4 °F -31.0 °F 53% 30.07 in 10.0 mi NW 5.8 mph - N/A   Clear
6:13 AM -18.4 °F -33.4 °F -31.0 °F 53% 30.07 in 10.0 mi WNW 5.8 mph 19.6 mph N/A   Clear
6:33 AM -20.2 °F -33.5 °F -32.8 °F 52% 30.08 in 10.0 mi NW 4.6 mph - N/A   Clear
6:53 AM -20.2 °F -35.5 °F -32.8 °F 52% 30.08 in 10.0 mi WNW 5.8 mph - N/A   Clear
7:13 AM -20.2 °F -40.1 °F -32.8 °F 52% 30.08 in 10.0 mi NW 9.2 mph - N/A   Clear
7:33 AM -20.2 °F -40.1 °F -32.8 °F 52% 30.09 in 10.0 mi NW 9.2 mph - N/A   Clear
7:53 AM -20.2 °F -42.4 °F -32.8 °F 52% 30.09 in 10.0 mi WNW 11.5 mph 20.7 mph N/A   Clear
8:13 AM -20.2 °F -40.1 °F -32.8 °F 52% 30.09 in 10.0 mi WNW 9.2 mph - N/A   Clear
8:33 AM -20.2 °F -41.3 °F -32.8 °F 52% 30.09 in 10.0 mi NW 10.4 mph 17.3 mph N/A   Clear
8:53 AM -20.2 °F -35.5 °F -32.8 °F 52% 30.10 in 10.0 mi WNW 5.8 mph 25.3 mph N/A   Scattered Clouds
9:13 AM -18.4 °F -35.1 °F -32.8 °F 48% 30.10 in 10.0 mi NW 6.9 mph 21.9 mph N/A   Scattered Clouds
9:33 AM -18.4 °F -31.4 °F -32.8 °F 48% 30.10 in 7.0 mi NW 4.6 mph 18.4 mph N/A   Scattered Clouds
9:53 AM -18.4 °F -33.4 °F -32.8 °F 48% 30.11 in 7.0 mi NW 5.8 mph - N/A   Scattered Clouds
10:13 AM -18.4 °F -39.1 °F -32.8 °F 48% 30.11 in 7.0 mi WNW 10.4 mph 18.4 mph N/A   Clear
10:33 AM -18.4 °F -33.4 °F -32.8 °F 48% 30.12 in 7.0 mi NW 5.8 mph - N/A   Clear
10:53 AM -18.4 °F -36.6 °F -32.8 °F 48% 30.11 in 10.0 mi WNW 8.1 mph 20.7 mph N/A   Clear
11:13 AM -16.6 °F -31.3 °F -32.8 °F 44% 30.11 in 10.0 mi NW 5.8 mph - N/A   Clear
11:33 AM -16.6 °F -31.3 °F -32.8 °F 44% 30.11 in 10.0 mi WNW 5.8 mph 18.4 mph N/A   Clear
11:53 AM -16.6 °F -36.8 °F -31.0 °F 48% 30.10 in 7.0 mi NW 10.4 mph 17.3 mph N/A   Clear
12:13 PM -14.8 °F -27.2 °F -29.2 °F 48% 30.10 in 7.0 mi NW 4.6 mph - N/A   Clear
12:33 PM -14.8 °F -27.2 °F -29.2 °F 48% 30.10 in 7.0 mi NW 4.6 mph - N/A   Clear
12:53 PM -14.8 °F -29.1 °F -29.2 °F 48% 30.10 in 5.0 mi NW 5.8 mph - N/A   Haze
1:13 PM -13.0 °F -30.0 °F -27.4 °F 49% 30.09 in 5.0 mi NW 8.1 mph - N/A   Haze
1:33 PM -11.2 °F -23.0 °F -27.4 °F 45% 30.09 in 10.0 mi West 4.6 mph - N/A   Clear
1:53 PM -11.2 °F -30.1 °F -29.2 °F 41% 30.09 in 10.0 mi West 10.4 mph 18.4 mph N/A   Clear
2:13 PM -13.0 °F -28.6 °F -29.2 °F 44% 30.09 in 10.0 mi WNW 6.9 mph - N/A   Clear
2:33 PM -11.2 °F -23.0 °F -27.4 °F 45% 30.09 in 10.0 mi West 4.6 mph - N/A   Clear
2:53 PM -11.2 °F -24.8 °F -27.4 °F 45% 30.09 in 10.0 mi NW 5.8 mph - N/A   Clear
3:13 PM -11.2 °F -26.4 °F -27.4 °F 45% 30.10 in 7.0 mi West 6.9 mph - N/A   Clear
3:33 PM -11.2 °F -23.0 °F -27.4 °F 45% 30.10 in 10.0 mi West 4.6 mph - N/A   Clear
3:53 PM -11.2 °F -24.8 °F -25.6 °F 49% 30.10 in 5.0 mi West 5.8 mph - N/A   Haze
4:13 PM -11.2 °F -24.8 °F -25.6 °F 49% 30.10 in 5.0 mi WNW 5.8 mph - N/A   Haze
4:53 PM -13.0 °F -22.7 °F -25.6 °F 53% 30.11 in 7.0 mi WSW 3.5 mph - N/A   Clear
5:13 PM -14.8 °F -24.8 °F -27.4 °F 53% 30.11 in 10.0 mi West 3.5 mph - N/A   Clear
5:33 PM -16.6 °F - -27.4 °F 58% 30.12 in 10.0 mi Calm Calm - N/A   Clear
5:53 PM -16.6 °F - -27.4 °F 58% 30.12 in 10.0 mi Calm Calm - N/A   Clear
6:13 PM -18.4 °F - -29.2 °F 58% 30.12 in 10.0 mi Calm Calm - N/A   Clear
6:33 PM -20.2 °F - -31.0 °F 58% 30.12 in 10.0 mi Calm Calm - N/A   Clear
6:53 PM -20.2 °F - -31.0 °F 58% 30.12 in 10.0 mi Calm Calm - N/A   Clear
7:13 PM -22.0 °F - -32.8 °F 57% 30.12 in 10.0 mi Calm Calm - N/A   Clear
7:33 PM -23.8 °F - -32.8 °F 63% 30.12 in 10.0 mi Calm Calm - N/A   Clear
7:53 PM -23.8 °F - -32.8 °F 63% 30.12 in 7.0 mi Calm Calm - N/A   Clear
8:13 PM -23.8 °F - -34.6 °F 57% 30.12 in 10.0 mi Calm Calm - N/A   Clear
8:33 PM -23.8 °F - -34.6 °F 57% 30.13 in 10.0 mi Calm Calm - N/A   Clear
8:53 PM -23.8 °F - -34.6 °F 57% 30.13 in 10.0 mi Calm Calm - N/A   Clear
9:13 PM -23.8 °F - -34.6 °F 57% 30.13 in 7.0 mi Calm Calm - N/A   Clear
9:33 PM -25.6 °F - -36.4 °F 57% 30.14 in 10.0 mi Calm Calm - N/A   Clear
9:53 PM -27.4 °F - -38.2 °F 57% 30.14 in 7.0 mi Calm Calm - N/A   Clear
10:13 PM -29.2 °F - -38.2 °F 62% 30.14 in 10.0 mi Calm Calm - N/A   Clear
10:33 PM -27.4 °F - -36.4 °F 62% 30.14 in 7.0 mi Calm Calm - N/A   Clear
10:53 PM -25.6 °F - -34.6 °F 63% 30.14 in 10.0 mi Calm Calm - N/A   Clear
11:13 PM -25.6 °F - -36.4 °F 57% 30.14 in 7.0 mi Calm Calm - N/A   Scattered Clouds
11:53 PM -25.6 °F -39.8 °F -32.8 °F 69% 30.13 in 7.0 mi WNW 4.6 mph - N/A   Overcast